DLH411 KJFK-EDDM

Flight info

Callsign DLH411
Flight time 4h 31m
Altitude 37000
Route MERIT DCT HFD DCT PUT DCT WITCH DCT ALLEX N535B UMESI/M083F390 NATU OLGON/N0476F390 DCT MORAG DCT EMJEE DCT KONAN UL607 KOK DCT REMBA DCT SPI DCT MOVUM T109 HAREM/N0484F350 T104 ELMOX/N0450F270 T104 ROKIL ROKIL1A
Aircraft A346/H-SDE2E3FGHIJ3J4J5M1RWXY/LB1D1

Departure

Time 2026-05-08 21:10
Airport John F. Kennedy International Airport (KJFK)

Arrival

Time 2026-05-09 01:42
Airport Munich Airport (EDDM)
Time Latitude Longitude Altitude Speed Heading
2026-05-08 20:29 40.65136 -73.78369 28 ft 0 kts 156°
2026-05-08 20:49 40.65137 -73.78369 29 ft 1 kts 156°
2026-05-08 20:49 40.65154 -73.78380 28 ft 1 kts 153°
2026-05-08 20:49 40.65171 -73.78395 28 ft 4 kts 129°
2026-05-08 20:49 40.65180 -73.78412 26 ft 4 kts 154°
2026-05-08 20:50 40.65187 -73.78415 27 ft 4 kts 183°
2026-05-08 20:50 40.65184 -73.78422 26 ft 4 kts 230°
2026-05-08 20:50 40.65129 -73.78456 26 ft 0 kts 24°
2026-05-08 20:50 40.65120 -73.78461 28 ft 4 kts 57°
2026-05-08 20:51 40.65120 -73.78467 28 ft 4 kts 103°
2026-05-08 20:51 40.65125 -73.78486 25 ft 4 kts 137°
2026-05-08 20:51 40.65126 -73.78487 26 ft 4 kts 186°
2026-05-08 20:51 40.65092 -73.78497 26 ft 4 kts 23°
2026-05-08 20:52 40.65115 -73.78479 25 ft 4 kts 36°
2026-05-08 20:52 40.65136 -73.78457 26 ft 4 kts 36°
2026-05-08 20:52 40.65142 -73.78452 29 ft 0 kts 35°
2026-05-08 21:00 40.65147 -73.78448 29 ft 2 kts 30°
2026-05-08 21:01 40.65166 -73.78436 29 ft 4 kts 25°
2026-05-08 21:01 40.65203 -73.78416 29 ft 7 kts 23°
2026-05-08 21:01 40.65245 -73.78378 29 ft 8 kts 70°
2026-05-08 21:01 40.65232 -73.78304 29 ft 10 kts 118°
2026-05-08 21:02 40.65192 -73.78213 29 ft 13 kts 120°
2026-05-08 21:02 40.65142 -73.78104 28 ft 15 kts 121°
2026-05-08 21:02 40.65085 -73.77978 28 ft 17 kts 121°
2026-05-08 21:02 40.65024 -73.77843 28 ft 13 kts 121°
2026-05-08 21:03 40.64974 -73.77732 28 ft 15 kts 121°
2026-05-08 21:03 40.64916 -73.77607 28 ft 17 kts 121°
2026-05-08 21:03 40.64850 -73.77461 28 ft 20 kts 120°
2026-05-08 21:03 40.64776 -73.77296 27 ft 22 kts 121°
2026-05-08 21:04 40.64684 -73.77123 29 ft 24 kts 143°
2026-05-08 21:04 40.64517 -73.77089 28 ft 26 kts 181°
2026-05-08 21:04 40.64349 -73.77168 29 ft 27 kts 211°
2026-05-08 21:04 40.64196 -73.77287 29 ft 22 kts 210°
2026-05-08 21:05 40.64057 -73.77396 29 ft 24 kts 211°
2026-05-08 21:05 40.63906 -73.77514 29 ft 26 kts 211°
2026-05-08 21:05 40.63745 -73.77640 28 ft 24 kts 211°
2026-05-08 21:05 40.63619 -73.77738 28 ft 22 kts 211°
2026-05-08 21:06 40.63484 -73.77844 29 ft 18 kts 211°
2026-05-08 21:06 40.63428 -73.77887 29 ft 5 kts 211°
2026-05-08 21:06 40.63393 -73.77919 29 ft 7 kts 212°
2026-05-08 21:06 40.63360 -73.77909 29 ft 6 kts 128°
2026-05-08 21:07 40.63332 -73.77853 30 ft 8 kts 122°
2026-05-08 21:07 40.63300 -73.77786 32 ft 9 kts 121°
2026-05-08 21:07 40.63263 -73.77705 32 ft 12 kts 121°
2026-05-08 21:07 40.63216 -73.77601 31 ft 15 kts 121°
2026-05-08 21:08 40.63159 -73.77477 30 ft 17 kts 121°
2026-05-08 21:08 40.63093 -73.77331 30 ft 20 kts 121°
2026-05-08 21:08 40.63037 -73.77207 29 ft 13 kts 121°
2026-05-08 21:08 40.62981 -73.77100 29 ft 14 kts 150°
2026-05-08 21:09 40.62884 -73.77132 30 ft 16 kts 210°
2026-05-08 21:09 40.62830 -73.77227 30 ft 8 kts 280°
2026-05-08 21:09 40.62838 -73.77259 30 ft 0 kts 297°
2026-05-08 21:09 40.62845 -73.77275 31 ft 12 kts 299°
2026-05-08 21:10 40.63033 -73.77689 34 ft 92 kts 301°
2026-05-08 21:10 40.63490 -73.78691 34 ft 159 kts 302°
2026-05-08 21:10 40.64117 -73.80048 480 ft 181 kts 302°
2026-05-08 21:10 40.64538 -73.81549 1565 ft 172 kts 267°
2026-05-08 21:11 40.64030 -73.82961 2488 ft 179 kts 233°
2026-05-08 21:11 40.63121 -73.84193 3013 ft 194 kts 229°
2026-05-08 21:11 40.62137 -73.85508 3545 ft 207 kts 229°
2026-05-08 21:11 40.61141 -73.86905 4258 ft 211 kts 236°
2026-05-08 21:12 40.60612 -73.88747 4676 ft 227 kts 268°
2026-05-08 21:12 40.60948 -73.90851 5110 ft 247 kts 294°
2026-05-08 21:12 40.61634 -73.92931 5965 ft 246 kts 280°
2026-05-08 21:12 40.61596 -73.95137 6607 ft 242 kts 253°
2026-05-08 21:13 40.60716 -73.97030 6951 ft 249 kts 226°
2026-05-08 21:13 40.59176 -73.98158 7006 ft 263 kts 199°
2026-05-08 21:13 40.57316 -73.98166 7009 ft 279 kts 171°
2026-05-08 21:13 40.55553 -73.96973 7013 ft 294 kts 143°
2026-05-08 21:14 40.54314 -73.94792 7004 ft 304 kts 115°
2026-05-08 21:14 40.53888 -73.92062 7006 ft 309 kts 88°
2026-05-08 21:14 40.54113 -73.89297 7015 ft 308 kts 79°
2026-05-08 21:14 40.54501 -73.86514 7015 ft 307 kts 77°
2026-05-08 21:15 40.54918 -73.83767 7010 ft 306 kts 77°
2026-05-08 21:15 40.55388 -73.81041 7006 ft 305 kts 67°
2026-05-08 21:15 40.56399 -73.78618 7014 ft 301 kts 51°
2026-05-08 21:15 40.57654 -73.76411 7015 ft 300 kts 48°
2026-05-08 21:16 40.58948 -73.74255 7009 ft 300 kts 47°
2026-05-08 21:16 40.60255 -73.72101 7012 ft 300 kts 47°
2026-05-08 21:16 40.61558 -73.69960 7019 ft 299 kts 47°
2026-05-08 21:16 40.62866 -73.67832 7022 ft 298 kts 47°
2026-05-08 21:17 40.64169 -73.65720 7288 ft 298 kts 47°
2026-05-08 21:17 40.65479 -73.63584 7734 ft 301 kts 47°
2026-05-08 21:17 40.66780 -73.61415 8176 ft 303 kts 47°
2026-05-08 21:17 40.68084 -73.59215 8623 ft 306 kts 47°
2026-05-08 21:18 40.69395 -73.56993 9077 ft 308 kts 45°
2026-05-08 21:18 40.70996 -73.55160 9585 ft 303 kts 21°
2026-05-08 21:18 40.72893 -73.54018 10371 ft 298 kts 14°
2026-05-08 21:18 40.74847 -73.53002 10892 ft 309 kts 13°
2026-05-08 21:19 40.76871 -73.51920 11229 ft 327 kts 15°
2026-05-08 21:19 40.79021 -73.50707 11552 ft 346 kts 16°
2026-05-08 21:19 40.81276 -73.49382 11914 ft 364 kts 18°
2026-05-08 21:19 40.83638 -73.47951 12269 ft 381 kts 18°
2026-05-08 21:20 40.86067 -73.46448 12946 ft 388 kts 18°
2026-05-08 21:20 40.88504 -73.44924 13826 ft 388 kts 18°
2026-05-08 21:20 40.90955 -73.43390 14566 ft 390 kts 18°
2026-05-08 21:20 40.93422 -73.41849 15229 ft 394 kts 17°
2026-05-08 21:21 40.95917 -73.40293 15911 ft 398 kts 17°
2026-05-08 21:21 40.98437 -73.38721 16550 ft 402 kts 17°
2026-05-08 21:21 41.00998 -73.37124 17126 ft 408 kts 17°
2026-05-08 21:21 41.03574 -73.35513 17835 ft 411 kts 17°
2026-05-08 21:22 41.06170 -73.33887 18487 ft 414 kts 16°
2026-05-08 21:22 41.08792 -73.32246 19050 ft 419 kts 16°
2026-05-08 21:22 41.11441 -73.30588 19588 ft 423 kts 16°
2026-05-08 21:22 41.14119 -73.28910 20137 ft 428 kts 16°
2026-05-08 21:23 41.16820 -73.27214 20678 ft 432 kts 16°
2026-05-08 21:23 41.19555 -73.25495 21239 ft 437 kts 16°
2026-05-08 21:23 41.22316 -73.23757 21779 ft 441 kts 16°
2026-05-08 21:23 41.25098 -73.22003 22315 ft 445 kts 16°
2026-05-08 21:24 41.27908 -73.20230 22821 ft 449 kts 16°
2026-05-08 21:24 41.30741 -73.18441 23372 ft 453 kts 16°
2026-05-08 21:24 41.33598 -73.16636 23817 ft 457 kts 17°
2026-05-08 21:24 41.36395 -73.14481 24254 ft 474 kts 27°
2026-05-08 21:25 41.38901 -73.11520 24751 ft 490 kts 40°
2026-05-08 21:25 41.40969 -73.07838 25193 ft 503 kts 51°
2026-05-08 21:25 41.42758 -73.03864 25627 ft 508 kts 53°
2026-05-08 21:25 41.44523 -72.99757 25966 ft 513 kts 54°
2026-05-08 21:26 41.46299 -72.95604 26365 ft 517 kts 54°
2026-05-08 21:26 41.48100 -72.91427 26765 ft 520 kts 53°
2026-05-08 21:26 41.49922 -72.87236 27149 ft 523 kts 53°
2026-05-08 21:26 41.51760 -72.83031 27550 ft 526 kts 53°
2026-05-08 21:27 41.53618 -72.78793 27930 ft 530 kts 53°
2026-05-08 21:27 41.55483 -72.74535 28318 ft 532 kts 53°
2026-05-08 21:27 41.57356 -72.70254 28823 ft 532 kts 53°
2026-05-08 21:27 41.59215 -72.65997 29400 ft 530 kts 53°
2026-05-08 21:28 41.61073 -72.61734 29983 ft 529 kts 53°
2026-05-08 21:28 41.62924 -72.57486 30433 ft 529 kts 53°
2026-05-08 21:28 41.64784 -72.53231 30884 ft 528 kts 53°
2026-05-08 21:28 41.66669 -72.49021 31321 ft 527 kts 52°
2026-05-08 21:29 41.68571 -72.44822 31783 ft 527 kts 52°
2026-05-08 21:29 41.70468 -72.40634 32233 ft 526 kts 52°
2026-05-08 21:29 41.72362 -72.36443 32684 ft 525 kts 52°
2026-05-08 21:29 41.74248 -72.32255 33137 ft 525 kts 53°
2026-05-08 21:30 41.76131 -72.28062 33569 ft 524 kts 53°
2026-05-08 21:30 41.78011 -72.23867 33960 ft 524 kts 53°
2026-05-08 21:30 41.79888 -72.19675 34289 ft 524 kts 53°
2026-05-08 21:30 41.81738 -72.15533 34607 ft 524 kts 53°
2026-05-08 21:31 41.83641 -72.11270 34939 ft 525 kts 53°
2026-05-08 21:31 41.85492 -72.07115 35212 ft 526 kts 53°
2026-05-08 21:31 41.87372 -72.02887 35456 ft 527 kts 53°
2026-05-08 21:31 41.89257 -71.98641 35683 ft 529 kts 53°
2026-05-08 21:32 41.91147 -71.94377 35889 ft 531 kts 54°
2026-05-08 21:32 41.93101 -71.90165 36071 ft 531 kts 51°
2026-05-08 21:32 41.95223 -71.86109 36235 ft 530 kts 47°
2026-05-08 21:32 41.97522 -71.82233 36442 ft 529 kts 43°
2026-05-08 21:33 41.99981 -71.78574 36654 ft 526 kts 39°
2026-05-08 21:33 42.02563 -71.75108 36858 ft 525 kts 38°
2026-05-08 21:33 42.05199 -71.71680 36903 ft 527 kts 37°
2026-05-08 21:34 42.10448 -71.64878 36913 ft 527 kts 37°
2026-05-08 21:34 42.15752 -71.57955 36930 ft 533 kts 38°
2026-05-08 21:35 42.21068 -71.50963 36908 ft 534 kts 38°
2026-05-08 21:35 42.26380 -71.43951 36898 ft 534 kts 38°
2026-05-08 21:36 42.31692 -71.36924 36915 ft 533 kts 38°
2026-05-08 21:36 42.36987 -71.29902 36885 ft 532 kts 38°
2026-05-08 21:37 42.42266 -71.22881 36894 ft 532 kts 38°
2026-05-08 21:37 42.46654 -71.17035 36923 ft 532 kts 38°
2026-05-08 21:38 42.51928 -71.09993 36872 ft 530 kts 39°
2026-05-08 21:38 42.57179 -71.02962 36868 ft 530 kts 39°
2026-05-08 21:39 42.62418 -70.95928 36911 ft 530 kts 39°
2026-05-08 21:39 42.67436 -70.88671 36877 ft 532 kts 45°
2026-05-08 21:40 42.71898 -70.80574 36876 ft 538 kts 52°
2026-05-08 21:40 42.75962 -70.72032 36873 ft 534 kts 53°
2026-05-08 21:41 42.81947 -70.59284 36870 ft 530 kts 53°
2026-05-08 21:41 42.85934 -70.50815 36850 ft 530 kts 53°
2026-05-08 21:42 42.89919 -70.42341 36861 ft 530 kts 53°
2026-05-08 21:42 42.93899 -70.33855 36873 ft 530 kts 53°
2026-05-08 21:43 42.97845 -70.25418 36873 ft 529 kts 53°
2026-05-08 21:43 43.01802 -70.16934 36865 ft 530 kts 53°
2026-05-08 21:44 43.05770 -70.08401 36868 ft 531 kts 53°
2026-05-08 21:44 43.09727 -69.99868 36869 ft 531 kts 53°
2026-05-08 21:45 43.13690 -69.91297 36872 ft 532 kts 53°
2026-05-08 21:45 43.17645 -69.82721 36868 ft 533 kts 54°
2026-05-08 21:46 43.21599 -69.74119 36879 ft 532 kts 54°
2026-05-08 21:46 43.25512 -69.65580 36868 ft 532 kts 54°
2026-05-08 21:47 43.29448 -69.56967 36866 ft 532 kts 54°
2026-05-08 21:47 43.33379 -69.48341 36868 ft 532 kts 54°
2026-05-08 21:48 43.37299 -69.39713 36868 ft 531 kts 54°
2026-05-08 21:48 43.41213 -69.31072 36848 ft 531 kts 54°
2026-05-08 21:49 43.45126 -69.22416 36870 ft 532 kts 54°
2026-05-08 21:49 43.49025 -69.13758 36866 ft 531 kts 55°
2026-05-08 21:50 43.52907 -69.05106 36859 ft 530 kts 55°
2026-05-08 21:50 43.56782 -68.96448 36860 ft 530 kts 55°
2026-05-08 21:51 43.60633 -68.87822 36877 ft 530 kts 55°
2026-05-08 21:51 43.64496 -68.79142 36862 ft 529 kts 55°
2026-05-08 21:52 43.68345 -68.70467 36846 ft 529 kts 56°
2026-05-08 21:52 43.72194 -68.61767 36852 ft 530 kts 56°
2026-05-08 21:53 43.76031 -68.53072 36865 ft 528 kts 56°
2026-05-08 21:53 43.79851 -68.44377 36853 ft 528 kts 56°
2026-05-08 21:54 43.83668 -68.35668 36855 ft 528 kts 56°
2026-05-08 21:54 43.87476 -68.26957 36862 ft 528 kts 56°
2026-05-08 21:55 43.91277 -68.18234 36856 ft 527 kts 56°
2026-05-08 21:56 43.96965 -68.05137 36851 ft 528 kts 57°
2026-05-08 21:56 44.00722 -67.96445 36861 ft 528 kts 57°
2026-05-08 21:57 44.04503 -67.87676 36847 ft 528 kts 57°
2026-05-08 21:57 44.08271 -67.78906 36840 ft 528 kts 57°
2026-05-08 21:58 44.12032 -67.70129 36837 ft 528 kts 57°
2026-05-08 21:58 44.15790 -67.61338 36846 ft 527 kts 57°
2026-05-08 21:59 44.19531 -67.52552 36833 ft 526 kts 58°
2026-05-08 21:59 44.23268 -67.43749 36820 ft 528 kts 58°
2026-05-08 22:00 44.27013 -67.34901 36827 ft 529 kts 58°
2026-05-08 22:00 44.30750 -67.26051 36829 ft 528 kts 58°
2026-05-08 22:01 44.34475 -67.17191 36820 ft 528 kts 58°
2026-05-08 22:01 44.38194 -67.08318 36813 ft 528 kts 58°
2026-05-08 22:02 44.42034 -66.99652 36812 ft 527 kts 53°
2026-05-08 22:02 44.46467 -66.91472 36809 ft 526 kts 49°
2026-05-08 22:03 44.51049 -66.83465 36798 ft 526 kts 49°
2026-05-08 22:03 44.55633 -66.75431 36813 ft 528 kts 50°
2026-05-08 22:04 44.60205 -66.67370 36808 ft 528 kts 50°
2026-05-08 22:04 44.64764 -66.59290 36801 ft 528 kts 50°
2026-05-08 22:05 44.69323 -66.51185 36796 ft 528 kts 50°
2026-05-08 22:05 44.73874 -66.43074 36792 ft 528 kts 50°
2026-05-08 22:06 44.78424 -66.34939 36791 ft 528 kts 50°
2026-05-08 22:06 44.82963 -66.26799 36791 ft 528 kts 50°
2026-05-08 22:07 44.87469 -66.18702 36803 ft 527 kts 50°
2026-05-08 22:07 44.91987 -66.10554 36794 ft 527 kts 50°
2026-05-08 22:08 44.96501 -66.02389 36797 ft 527 kts 51°
2026-05-08 22:08 45.01000 -65.94231 36803 ft 527 kts 51°
2026-05-08 22:09 45.05497 -65.86055 36794 ft 526 kts 51°
2026-05-08 22:09 45.09984 -65.77868 36789 ft 526 kts 51°
2026-05-08 22:10 45.14464 -65.69672 36788 ft 526 kts 51°
2026-05-08 22:10 45.18940 -65.61467 36783 ft 526 kts 51°
2026-05-08 22:11 45.23376 -65.53303 36783 ft 525 kts 51°
2026-05-08 22:11 45.27835 -65.45074 36773 ft 525 kts 51°
2026-05-08 22:12 45.32297 -65.36821 36780 ft 526 kts 52°
2026-05-08 22:12 45.36746 -65.28564 36763 ft 526 kts 52°
2026-05-08 22:13 45.41193 -65.20285 36756 ft 526 kts 52°
2026-05-08 22:13 45.45641 -65.11988 36757 ft 527 kts 52°
2026-05-08 22:14 45.50115 -65.03613 36763 ft 526 kts 52°
2026-05-08 22:14 45.54162 -64.96009 36760 ft 526 kts 52°
2026-05-08 22:15 45.54179 -64.95978 36756 ft 526 kts 52°
2026-05-08 22:15 45.56004 -64.92543 36760 ft 526 kts 52°
2026-05-08 22:16 45.63716 -64.77997 36751 ft 526 kts 53°
2026-05-08 22:16 45.72467 -64.61390 36751 ft 526 kts 53°
2026-05-08 22:17 45.81300 -64.44535 36738 ft 524 kts 53°
2026-05-08 22:17 45.89994 -64.27845 36721 ft 525 kts 54°
2026-05-08 22:18 45.98735 -64.10953 36724 ft 525 kts 54°
2026-05-08 22:18 46.07436 -63.94058 36724 ft 527 kts 54°
2026-05-08 22:19 46.16149 -63.77012 36730 ft 527 kts 55°
2026-05-08 22:19 46.24847 -63.59907 36734 ft 528 kts 55°
2026-05-08 22:20 46.33528 -63.42725 36715 ft 529 kts 56°
2026-05-08 22:20 46.42168 -63.25519 36735 ft 529 kts 56°
2026-05-08 22:21 46.50818 -63.08189 36741 ft 530 kts 56°
2026-05-08 22:21 46.59456 -62.90770 36743 ft 530 kts 57°
2026-05-08 22:22 46.68058 -62.73325 36743 ft 530 kts 57°
2026-05-08 22:22 46.76654 -62.55768 36750 ft 530 kts 57°
2026-05-08 22:23 46.85239 -62.38139 36744 ft 533 kts 58°
2026-05-08 22:23 46.93804 -62.20421 36743 ft 533 kts 58°
2026-05-08 22:24 47.02332 -62.02678 36742 ft 533 kts 59°
2026-05-08 22:24 47.10806 -61.84932 36724 ft 533 kts 59°
2026-05-08 22:25 47.19285 -61.67056 36726 ft 533 kts 59°
2026-05-08 22:25 47.27761 -61.49095 36718 ft 535 kts 60°
2026-05-08 22:26 47.36231 -61.30985 36722 ft 535 kts 60°
2026-05-08 22:26 47.44669 -61.12845 36724 ft 535 kts 60°
2026-05-08 22:27 47.53075 -60.94657 36724 ft 535 kts 60°
2026-05-08 22:27 47.61416 -60.76484 36719 ft 532 kts 60°
2026-05-08 22:28 47.69731 -60.58268 36668 ft 533 kts 61°
2026-05-08 22:28 47.77961 -60.40094 36709 ft 533 kts 61°
2026-05-08 22:29 47.86229 -60.21722 36699 ft 532 kts 62°
2026-05-08 22:29 47.94441 -60.03345 36712 ft 532 kts 62°
2026-05-08 22:30 48.01248 -59.88029 36700 ft 531 kts 62°
2026-05-08 22:30 48.09381 -59.69600 36702 ft 531 kts 62°
2026-05-08 22:31 48.17499 -59.51106 36690 ft 531 kts 63°
2026-05-08 22:31 48.26881 -59.29530 36697 ft 530 kts 63°
2026-05-08 22:32 48.33627 -59.13934 36691 ft 531 kts 64°
2026-05-08 22:32 48.41638 -58.95274 36690 ft 531 kts 64°
2026-05-08 22:33 48.49594 -58.76632 36678 ft 532 kts 65°
2026-05-08 22:33 48.57583 -58.57770 36591 ft 532 kts 65°
2026-05-08 22:34 48.65555 -58.38819 36669 ft 534 kts 66°
2026-05-08 22:34 48.73499 -58.19803 36649 ft 534 kts 66°
2026-05-08 22:35 48.81425 -58.00688 36654 ft 534 kts 66°
2026-05-08 22:35 48.89306 -57.81546 36645 ft 534 kts 66°
2026-05-08 22:36 48.97150 -57.62358 36650 ft 534 kts 66°
2026-05-08 22:36 49.04918 -57.43233 36625 ft 535 kts 67°
2026-05-08 22:37 49.12730 -57.23833 36650 ft 535 kts 67°
2026-05-08 22:37 49.20507 -57.04397 36642 ft 536 kts 68°
2026-05-08 22:38 49.28254 -56.84884 36654 ft 535 kts 68°
2026-05-08 22:38 49.35985 -56.65271 36661 ft 536 kts 68°
2026-05-08 22:39 49.43669 -56.45631 36668 ft 536 kts 68°
2026-05-08 22:39 49.51308 -56.25958 36667 ft 535 kts 69°
2026-05-08 22:40 49.58914 -56.06225 36641 ft 535 kts 69°
2026-05-08 22:40 49.66430 -55.86576 36671 ft 534 kts 69°
2026-05-08 22:41 49.73956 -55.66753 36657 ft 535 kts 69°
2026-05-08 22:41 49.81464 -55.46823 36664 ft 535 kts 70°
2026-05-08 22:42 49.88937 -55.26834 36651 ft 536 kts 70°
2026-05-08 22:42 49.96366 -55.06814 36663 ft 533 kts 70°
2026-05-08 22:43 50.03741 -54.86771 36656 ft 533 kts 70°
2026-05-08 22:43 50.11072 -54.66707 36660 ft 532 kts 70°
2026-05-08 22:44 50.18363 -54.46581 36654 ft 532 kts 70°
2026-05-08 22:44 50.25621 -54.26412 36661 ft 532 kts 70°
2026-05-08 22:45 50.32843 -54.06173 36607 ft 531 kts 70°
2026-05-08 22:45 50.39951 -53.86097 36666 ft 529 kts 70°
2026-05-08 22:46 50.47058 -53.65857 36671 ft 529 kts 70°
2026-05-08 22:46 50.54135 -53.45554 36678 ft 529 kts 71°
2026-05-08 22:47 50.61175 -53.25178 36684 ft 530 kts 71°
2026-05-08 22:47 50.68205 -53.04686 36688 ft 530 kts 71°
2026-05-08 22:48 50.75179 -52.84168 36637 ft 529 kts 70°
2026-05-08 22:48 50.82087 -52.63708 36705 ft 526 kts 70°
2026-05-08 22:49 50.88019 -52.42767 36703 ft 521 kts 76°
2026-05-08 22:49 50.93659 -52.21630 38120 ft 515 kts 76°
2026-05-08 22:49 50.96443 -52.11160 38568 ft 514 kts 76°
2026-05-08 22:50 50.99214 -52.00675 38710 ft 515 kts 75°
2026-05-08 22:50 51.01947 -51.90330 38726 ft 515 kts 75°
2026-05-08 22:50 51.07450 -51.69322 38734 ft 512 kts 75°
2026-05-08 22:51 51.12890 -51.48380 38744 ft 510 kts 75°
2026-05-08 22:51 51.18278 -51.27442 38751 ft 510 kts 75°
2026-05-08 22:52 51.23631 -51.06424 38764 ft 511 kts 75°
2026-05-08 22:52 51.28954 -50.85357 38773 ft 510 kts 75°
2026-05-08 22:53 51.34224 -50.64242 38776 ft 512 kts 74°
2026-05-08 22:53 51.39485 -50.43049 38792 ft 512 kts 74°
2026-05-08 22:54 51.44704 -50.21778 38804 ft 512 kts 74°
2026-05-08 22:54 51.49891 -50.00436 38817 ft 513 kts 75°
2026-05-08 22:55 51.55203 -49.79271 38831 ft 513 kts 73°
2026-05-08 22:55 51.60535 -49.57920 38822 ft 515 kts 73°
2026-05-08 22:56 51.65832 -49.36490 38846 ft 515 kts 73°
2026-05-08 22:56 51.71105 -49.14933 38855 ft 516 kts 73°
2026-05-08 22:57 51.76341 -48.93322 38878 ft 516 kts 74°
2026-05-08 22:57 51.81540 -48.71632 38885 ft 517 kts 74°
2026-05-08 22:58 51.86701 -48.49903 38866 ft 516 kts 73°
2026-05-08 22:58 51.91763 -48.28364 38901 ft 513 kts 73°
2026-05-08 22:59 51.96807 -48.06696 38918 ft 513 kts 74°
2026-05-08 22:59 52.01810 -47.84976 38917 ft 512 kts 74°
2026-05-08 23:00 52.06759 -47.63273 38936 ft 512 kts 74°
2026-05-08 23:00 52.11668 -47.41510 38945 ft 512 kts 74°
2026-05-08 23:01 52.16542 -47.19666 38952 ft 512 kts 73°
2026-05-08 23:01 52.21384 -46.97784 38974 ft 512 kts 73°
2026-05-08 23:02 52.26184 -46.75816 38978 ft 514 kts 73°
2026-05-08 23:02 52.30953 -46.53789 38991 ft 514 kts 73°
2026-05-08 23:03 52.35680 -46.31683 39003 ft 514 kts 73°
2026-05-08 23:03 52.40360 -46.09567 39015 ft 511 kts 73°
2026-05-08 23:04 52.44976 -45.87524 39037 ft 509 kts 73°
2026-05-08 23:04 52.49552 -45.65447 39050 ft 509 kts 73°
2026-05-08 23:05 52.54039 -45.43526 39054 ft 509 kts 73°
2026-05-08 23:05 52.58514 -45.21443 39080 ft 508 kts 73°
2026-05-08 23:06 52.62948 -44.99308 39089 ft 508 kts 73°
2026-05-08 23:06 52.67334 -44.77159 39107 ft 508 kts 73°
2026-05-08 23:07 52.71680 -44.54953 39107 ft 508 kts 73°
2026-05-08 23:07 52.75984 -44.32697 39115 ft 508 kts 73°
2026-05-08 23:08 52.80245 -44.10428 39134 ft 508 kts 73°
2026-05-08 23:08 52.84460 -43.88107 39150 ft 507 kts 73°
2026-05-08 23:09 52.88595 -43.65958 39169 ft 505 kts 73°
2026-05-08 23:09 52.92709 -43.43675 39182 ft 504 kts 73°
2026-05-08 23:10 52.96774 -43.21389 39200 ft 504 kts 73°
2026-05-08 23:10 53.00791 -42.99101 39213 ft 504 kts 73°
2026-05-08 23:11 53.04760 -42.76768 39230 ft 503 kts 73°
2026-05-08 23:11 53.08698 -42.54373 39227 ft 503 kts 72°
2026-05-08 23:12 53.12562 -42.32066 39246 ft 500 kts 72°
2026-05-08 23:12 53.16366 -42.09912 39262 ft 500 kts 72°
2026-05-08 23:13 53.20143 -41.87574 39271 ft 499 kts 72°
2026-05-08 23:13 53.23882 -41.65198 39287 ft 499 kts 72°
2026-05-08 23:14 53.27575 -41.42810 39294 ft 499 kts 72°
2026-05-08 23:14 53.31225 -41.20338 39313 ft 496 kts 72°
2026-05-08 23:15 53.34816 -40.98012 39324 ft 495 kts 72°
2026-05-08 23:15 53.38351 -40.75680 39342 ft 494 kts 72°
2026-05-08 23:16 53.41844 -40.53357 39349 ft 494 kts 72°
2026-05-08 23:16 53.45270 -40.31129 39364 ft 493 kts 72°
2026-05-08 23:17 53.48665 -40.08822 39373 ft 492 kts 72°
2026-05-08 23:17 53.51942 -39.86525 39378 ft 489 kts 72°
2026-05-08 23:18 53.55109 -39.64240 39394 ft 489 kts 72°
2026-05-08 23:18 53.58244 -39.41907 39394 ft 490 kts 72°
2026-05-08 23:19 53.61331 -39.19561 39419 ft 488 kts 72°
2026-05-08 23:19 53.64362 -38.97351 39419 ft 488 kts 72°
2026-05-08 23:20 53.67366 -38.74972 39434 ft 488 kts 72°
2026-05-08 23:20 53.70305 -38.52715 39444 ft 484 kts 72°
2026-05-08 23:21 53.73204 -38.30470 39448 ft 484 kts 72°
2026-05-08 23:21 53.76048 -38.08233 39465 ft 481 kts 72°
2026-05-08 23:22 53.78848 -37.86061 39467 ft 481 kts 72°
2026-05-08 23:22 53.81605 -37.63851 39488 ft 481 kts 73°
2026-05-08 23:23 53.84303 -37.41711 39498 ft 475 kts 72°
2026-05-08 23:23 53.86497 -37.23494 39490 ft 474 kts 72°
2026-05-08 23:24 53.89510 -36.98020 39512 ft 472 kts 72°
2026-05-08 23:24 53.92053 -36.76157 39508 ft 472 kts 72°
2026-05-08 23:25 53.94150 -36.57830 39518 ft 472 kts 73°
2026-05-08 23:25 53.96590 -36.36139 39525 ft 468 kts 72°
2026-05-08 23:26 53.98996 -36.14401 39539 ft 465 kts 73°
2026-05-08 23:26 54.01334 -35.92893 39543 ft 461 kts 72°
2026-05-08 23:27 54.03628 -35.71446 39540 ft 460 kts 73°
2026-05-08 23:27 54.05879 -35.50004 39549 ft 460 kts 73°
2026-05-08 23:28 54.08088 -35.28555 39560 ft 457 kts 73°
2026-05-08 23:28 54.10256 -35.07141 39566 ft 457 kts 73°
2026-05-08 23:29 54.12382 -34.85718 39581 ft 457 kts 73°
2026-05-08 23:29 54.14421 -34.64733 39566 ft 449 kts 73°
2026-05-08 23:30 54.16442 -34.43644 39575 ft 449 kts 73°
2026-05-08 23:30 54.18419 -34.22557 39581 ft 449 kts 73°
2026-05-08 23:31 54.20363 -34.01425 39584 ft 450 kts 73°
2026-05-08 23:31 54.22269 -33.80266 39584 ft 450 kts 73°
2026-05-08 23:32 54.24131 -33.59125 39597 ft 448 kts 73°
2026-05-08 23:32 54.25945 -33.38127 39602 ft 443 kts 73°
2026-05-08 23:33 54.27718 -33.17221 39602 ft 443 kts 73°
2026-05-08 23:33 54.29439 -32.96430 39606 ft 443 kts 73°
2026-05-08 23:34 54.31135 -32.75520 39610 ft 443 kts 73°
2026-05-08 23:34 54.32791 -32.54570 39625 ft 443 kts 73°
2026-05-08 23:35 54.34414 -32.33626 39614 ft 442 kts 73°
2026-05-08 23:35 54.36001 -32.12662 39609 ft 443 kts 73°
2026-05-08 23:36 54.37545 -31.91698 39624 ft 441 kts 73°
2026-05-08 23:36 54.39054 -31.70822 39617 ft 440 kts 73°
2026-05-08 23:37 54.40526 -31.49905 39616 ft 441 kts 73°
2026-05-08 23:37 54.41944 -31.29172 39621 ft 437 kts 73°
2026-05-08 23:38 54.43338 -31.08388 39612 ft 438 kts 73°
2026-05-08 23:38 54.44693 -30.87560 39636 ft 438 kts 73°
2026-05-08 23:39 54.45999 -30.66880 39618 ft 433 kts 73°
2026-05-08 23:39 54.47272 -30.46243 39616 ft 434 kts 73°
2026-05-08 23:40 54.48508 -30.25579 39634 ft 434 kts 73°
2026-05-08 23:40 54.49714 -30.04824 39613 ft 435 kts 73°
2026-05-08 23:41 54.50662 -29.83946 39616 ft 438 kts 75°
2026-05-08 23:41 54.51461 -29.63009 39620 ft 438 kts 75°
2026-05-08 23:42 54.52238 -29.42173 39612 ft 438 kts 75°
2026-05-08 23:42 54.52987 -29.21200 39607 ft 438 kts 75°
2026-05-08 23:43 54.53704 -29.00191 39611 ft 440 kts 76°
2026-05-08 23:43 54.54382 -28.79065 39602 ft 441 kts 76°
2026-05-08 23:44 54.55024 -28.57935 39597 ft 441 kts 76°
2026-05-08 23:44 54.55631 -28.36785 39599 ft 441 kts 76°
2026-05-08 23:45 54.56198 -28.15761 39602 ft 442 kts 77°
2026-05-08 23:45 54.56732 -27.94522 39619 ft 442 kts 77°
2026-05-08 23:46 54.57234 -27.73180 39591 ft 445 kts 77°
2026-05-08 23:46 54.57695 -27.51762 39592 ft 446 kts 77°
2026-05-08 23:47 54.58123 -27.30359 39613 ft 447 kts 78°
2026-05-08 23:47 54.58513 -27.08811 39586 ft 450 kts 78°
2026-05-08 23:48 54.58869 -26.87187 39586 ft 451 kts 79°
2026-05-08 23:48 54.59187 -26.65476 39588 ft 453 kts 79°
2026-05-08 23:49 54.59459 -26.43678 39575 ft 454 kts 79°
2026-05-08 23:49 54.59696 -26.21866 39570 ft 454 kts 80°
2026-05-08 23:50 54.59901 -25.99984 39570 ft 457 kts 81°
2026-05-08 23:50 54.60058 -25.78020 39562 ft 457 kts 81°
2026-05-08 23:51 54.60182 -25.56020 39584 ft 458 kts 81°
2026-05-08 23:51 54.60264 -25.34022 39562 ft 461 kts 82°
2026-05-08 23:52 54.60303 -25.11851 39546 ft 461 kts 82°
2026-05-08 23:52 54.60309 -24.89661 39545 ft 463 kts 83°
2026-05-08 23:53 54.60266 -24.67370 39535 ft 464 kts 83°
2026-05-08 23:53 54.60187 -24.45063 39551 ft 464 kts 84°
2026-05-08 23:54 54.60066 -24.22677 39538 ft 464 kts 84°
2026-05-08 23:55 54.59803 -23.89223 39532 ft 464 kts 84°
2026-05-08 23:55 54.59584 -23.67053 39534 ft 465 kts 85°
2026-05-08 23:56 54.59315 -23.44681 39531 ft 466 kts 85°
2026-05-08 23:56 54.59007 -23.22301 39517 ft 466 kts 85°
2026-05-08 23:57 54.58662 -22.99872 39524 ft 468 kts 86°
2026-05-08 23:57 54.58266 -22.77380 39520 ft 468 kts 86°
2026-05-08 23:58 54.57831 -22.54859 39510 ft 468 kts 86°
2026-05-08 23:58 54.57356 -22.32386 39510 ft 468 kts 87°
2026-05-08 23:59 54.56839 -22.09918 39508 ft 468 kts 87°
2026-05-08 23:59 54.56287 -21.87519 39510 ft 472 kts 88°
2026-05-09 00:00 54.55674 -21.64712 39504 ft 473 kts 88°
2026-05-09 00:00 54.55029 -21.42193 39503 ft 473 kts 88°
2026-05-09 00:01 54.54338 -21.19466 39502 ft 475 kts 89°
2026-05-09 00:01 54.53600 -20.96701 39492 ft 475 kts 89°
2026-05-09 00:02 54.52822 -20.73905 39498 ft 477 kts 89°
2026-05-09 00:02 54.51996 -20.51065 39483 ft 478 kts 89°
2026-05-09 00:03 54.51125 -20.28178 39478 ft 478 kts 90°
2026-05-09 00:03 54.50091 -20.05283 39479 ft 482 kts 94°
2026-05-09 00:04 54.46952 -19.82679 39476 ft 487 kts 103°
2026-05-09 00:04 54.42993 -19.60531 39484 ft 487 kts 103°
2026-05-09 00:05 54.38989 -19.38263 39469 ft 488 kts 104°
2026-05-09 00:05 54.34938 -19.16011 39459 ft 488 kts 104°
2026-05-09 00:06 54.30843 -18.93771 39464 ft 488 kts 104°
2026-05-09 00:06 54.26738 -18.71727 39447 ft 488 kts 105°
2026-05-09 00:07 54.22566 -18.49622 39449 ft 488 kts 105°
2026-05-09 00:07 54.18349 -18.27511 39446 ft 488 kts 105°
2026-05-09 00:08 54.14090 -18.05445 39437 ft 489 kts 106°
2026-05-09 00:08 54.09798 -17.83449 39430 ft 488 kts 106°
2026-05-09 00:09 54.05465 -17.61492 39432 ft 489 kts 106°
2026-05-09 00:09 54.01076 -17.39495 39416 ft 491 kts 107°
2026-05-09 00:10 53.96625 -17.17472 39410 ft 492 kts 107°
2026-05-09 00:10 53.92144 -16.95502 39412 ft 493 kts 108°
2026-05-09 00:11 53.87588 -16.73444 39397 ft 494 kts 108°
2026-05-09 00:11 53.82993 -16.51421 39392 ft 493 kts 108°
2026-05-09 00:12 53.78390 -16.29638 39379 ft 494 kts 109°
2026-05-09 00:12 53.73716 -16.07730 39386 ft 494 kts 108°
2026-05-09 00:13 53.69008 -15.85883 39367 ft 494 kts 109°
2026-05-09 00:13 53.64258 -15.64068 39367 ft 495 kts 110°
2026-05-09 00:14 53.59453 -15.42272 39360 ft 496 kts 110°
2026-05-09 00:14 53.54609 -15.20507 39352 ft 496 kts 110°
2026-05-09 00:15 53.50787 -14.98183 39348 ft 499 kts 99°
2026-05-09 00:15 53.49969 -14.74932 39342 ft 497 kts 89°
2026-05-09 00:16 53.50064 -14.51601 39347 ft 500 kts 90°
2026-05-09 00:16 53.50065 -14.32098 39334 ft 501 kts 90°
2026-05-09 00:17 53.50013 -14.04840 39326 ft 503 kts 91°
2026-05-09 00:17 53.49249 -13.85210 39325 ft 501 kts 96°
2026-05-09 00:18 53.47991 -13.62058 39317 ft 501 kts 96°
2026-05-09 00:18 53.46701 -13.38797 39315 ft 497 kts 97°
2026-05-09 00:19 53.45368 -13.15652 39313 ft 499 kts 97°
2026-05-09 00:19 53.43994 -12.92448 39303 ft 497 kts 97°
2026-05-09 00:20 53.42573 -12.69286 39300 ft 499 kts 97°
2026-05-09 00:20 53.41106 -12.46119 39296 ft 498 kts 98°
2026-05-09 00:21 53.39603 -12.23107 39287 ft 498 kts 98°
2026-05-09 00:21 53.38059 -12.00039 39268 ft 497 kts 99°
2026-05-09 00:22 53.36466 -11.77044 39276 ft 495 kts 99°
2026-05-09 00:22 53.34835 -11.54110 39261 ft 495 kts 99°
2026-05-09 00:23 53.33156 -11.31179 39263 ft 495 kts 99°
2026-05-09 00:23 53.31436 -11.08284 39252 ft 495 kts 99°
2026-05-09 00:24 53.29674 -10.85437 39255 ft 494 kts 99°
2026-05-09 00:24 53.27881 -10.62746 39245 ft 495 kts 100°
2026-05-09 00:25 53.26031 -10.39946 39243 ft 494 kts 100°
2026-05-09 00:25 53.24140 -10.17180 39241 ft 493 kts 100°
2026-05-09 00:26 53.22207 -9.94423 39237 ft 493 kts 100°
2026-05-09 00:26 53.20233 -9.71720 39232 ft 493 kts 100°
2026-05-09 00:27 53.18216 -9.49038 39233 ft 494 kts 101°
2026-05-09 00:27 53.16149 -9.26310 39221 ft 494 kts 101°
2026-05-09 00:28 53.14045 -9.03654 39217 ft 495 kts 101°
2026-05-09 00:28 53.11892 -8.80981 39208 ft 495 kts 101°
2026-05-09 00:29 53.09698 -8.58316 39207 ft 495 kts 102°
2026-05-09 00:29 53.07456 -8.35675 39202 ft 495 kts 102°
2026-05-09 00:30 53.05175 -8.13062 39187 ft 495 kts 102°
2026-05-09 00:30 53.02846 -7.90429 39190 ft 495 kts 102°
2026-05-09 00:31 53.00495 -7.68034 39191 ft 495 kts 103°
2026-05-09 00:31 52.98080 -7.45413 39184 ft 490 kts 103°
2026-05-09 00:32 52.95633 -7.22976 39183 ft 490 kts 103°
2026-05-09 00:32 52.93179 -7.00845 39175 ft 489 kts 104°
2026-05-09 00:33 52.90671 -6.78645 39171 ft 489 kts 104°
2026-05-09 00:33 52.88120 -6.56439 39161 ft 489 kts 104°
2026-05-09 00:34 52.85531 -6.34291 39170 ft 489 kts 104°
2026-05-09 00:34 52.82899 -6.12165 39158 ft 487 kts 104°
2026-05-09 00:35 52.80236 -5.90128 39158 ft 488 kts 105°
2026-05-09 00:35 52.77549 -5.68246 39159 ft 488 kts 105°
2026-05-09 00:36 52.74618 -5.46267 39155 ft 486 kts 109°
2026-05-09 00:36 52.70773 -5.24839 39156 ft 486 kts 110°
2026-05-09 00:37 52.66898 -5.03472 39150 ft 486 kts 110°
2026-05-09 00:37 52.62987 -4.82123 39140 ft 485 kts 110°
2026-05-09 00:38 52.59036 -4.60798 39138 ft 485 kts 110°
2026-05-09 00:38 52.55072 -4.39655 39124 ft 486 kts 110°
2026-05-09 00:39 52.51052 -4.18440 39124 ft 486 kts 111°
2026-05-09 00:39 52.46994 -3.97270 39122 ft 485 kts 111°
2026-05-09 00:40 52.42897 -3.76134 39124 ft 484 kts 111°
2026-05-09 00:40 52.38765 -3.55049 39134 ft 484 kts 111°
2026-05-09 00:41 52.32505 -3.23534 39136 ft 485 kts 111°
2026-05-09 00:41 52.28267 -3.02478 39127 ft 485 kts 111°
2026-05-09 00:42 52.24015 -2.81583 39121 ft 484 kts 111°
2026-05-09 00:42 52.19780 -2.60984 39126 ft 481 kts 112°
2026-05-09 00:43 52.15478 -2.40298 39117 ft 481 kts 111°
2026-05-09 00:43 52.11141 -2.19618 39124 ft 481 kts 112°
2026-05-09 00:44 52.06771 -1.99008 39123 ft 481 kts 112°
2026-05-09 00:44 52.02352 -1.78429 39120 ft 481 kts 112°
2026-05-09 00:45 51.97900 -1.57870 39121 ft 481 kts 112°
2026-05-09 00:45 51.93419 -1.37393 39119 ft 481 kts 112°
2026-05-09 00:46 51.88921 -1.17024 39125 ft 481 kts 112°
2026-05-09 00:46 51.84367 -0.96607 39121 ft 481 kts 112°
2026-05-09 00:47 51.79767 -0.76194 39119 ft 481 kts 112°
2026-05-09 00:47 51.75148 -0.55877 39137 ft 480 kts 112°
2026-05-09 00:48 51.70506 -0.35664 39148 ft 480 kts 112°
2026-05-09 00:48 51.65815 -0.15425 39148 ft 480 kts 112°
2026-05-09 00:49 51.61093 0.04739 39133 ft 481 kts 112°
2026-05-09 00:49 51.56305 0.25009 39127 ft 481 kts 113°
2026-05-09 00:50 51.51541 0.44989 39135 ft 480 kts 113°
2026-05-09 00:50 51.46666 0.65236 39136 ft 483 kts 113°
2026-05-09 00:51 51.41788 0.85329 39138 ft 483 kts 113°
2026-05-09 00:51 51.36857 1.05431 39138 ft 485 kts 113°
2026-05-09 00:52 51.31882 1.25557 39129 ft 485 kts 113°
2026-05-09 00:52 51.26890 1.45560 39129 ft 484 kts 113°
2026-05-09 00:53 51.21823 1.65681 39134 ft 486 kts 113°
2026-05-09 00:53 51.16742 1.85677 39131 ft 486 kts 113°
2026-05-09 00:54 51.12938 2.06426 39127 ft 489 kts 100°
2026-05-09 00:54 51.11611 2.28027 39124 ft 490 kts 94°
2026-05-09 00:55 51.10523 2.49668 39120 ft 490 kts 95°
2026-05-09 00:55 51.08612 2.71142 39118 ft 490 kts 104°
2026-05-09 00:56 51.04817 2.92012 39125 ft 489 kts 106°
2026-05-09 00:56 51.00966 3.12827 39119 ft 489 kts 106°
2026-05-09 00:57 50.97088 3.33598 39107 ft 489 kts 106°
2026-05-09 00:57 50.93177 3.54326 39108 ft 490 kts 107°
2026-05-09 00:58 50.89221 3.75068 39107 ft 490 kts 107°
2026-05-09 00:58 50.85211 3.95851 39114 ft 493 kts 107°
2026-05-09 00:59 50.81164 4.16612 39123 ft 493 kts 107°
2026-05-09 00:59 50.77084 4.37310 39128 ft 492 kts 107°
2026-05-09 01:00 50.72968 4.57973 39125 ft 493 kts 107°
2026-05-09 01:00 50.68834 4.78524 39121 ft 495 kts 107°
2026-05-09 01:01 50.64589 4.99366 39120 ft 495 kts 108°
2026-05-09 01:01 50.60352 5.19909 39123 ft 497 kts 108°
2026-05-09 01:02 50.56037 5.40643 39122 ft 497 kts 108°
2026-05-09 01:02 50.51690 5.61333 39122 ft 498 kts 107°
2026-05-09 01:03 50.47846 5.82297 39122 ft 498 kts 105°
2026-05-09 01:03 50.44026 6.03207 39124 ft 498 kts 105°
2026-05-09 01:04 50.40164 6.24083 39118 ft 497 kts 106°
2026-05-09 01:04 50.36263 6.44930 39115 ft 497 kts 106°
2026-05-09 01:05 50.32339 6.65675 39115 ft 496 kts 106°
2026-05-09 01:06 50.27051 6.93262 39132 ft 496 kts 107°
2026-05-09 01:06 50.23033 7.13963 39128 ft 496 kts 107°
2026-05-09 01:07 50.18981 7.34610 39129 ft 496 kts 107°
2026-05-09 01:07 50.16322 7.48055 39129 ft 499 kts 107°
2026-05-09 01:08 50.14251 7.58441 39134 ft 499 kts 107°
2026-05-09 01:08 50.12178 7.68789 39133 ft 500 kts 108°
2026-05-09 01:09 50.10098 7.79124 39139 ft 500 kts 108°
2026-05-09 01:09 50.08004 7.89477 39140 ft 500 kts 108°
2026-05-09 01:10 50.05903 7.99806 39137 ft 500 kts 108°
2026-05-09 01:10 50.03794 8.10124 39135 ft 500 kts 108°
2026-05-09 01:11 50.01674 8.20441 39135 ft 500 kts 108°
2026-05-09 01:11 49.99536 8.30807 38973 ft 501 kts 108°
2026-05-09 01:11 49.98467 8.35962 38736 ft 499 kts 108°
2026-05-09 01:12 49.97415 8.41011 38451 ft 496 kts 108°
2026-05-09 01:12 49.96321 8.46097 38170 ft 492 kts 110°
2026-05-09 01:12 49.95081 8.51037 37896 ft 489 kts 113°
2026-05-09 01:12 49.93671 8.55841 37638 ft 488 kts 116°
2026-05-09 01:13 49.92093 8.60511 37360 ft 487 kts 120°
2026-05-09 01:13 49.90411 8.65080 37096 ft 487 kts 120°
2026-05-09 01:13 49.88728 8.69640 36833 ft 487 kts 120°
2026-05-09 01:13 49.87046 8.74199 36576 ft 486 kts 120°
2026-05-09 01:14 49.85357 8.78760 36317 ft 487 kts 120°
2026-05-09 01:14 49.83666 8.83311 36068 ft 487 kts 120°
2026-05-09 01:14 49.81973 8.87857 35812 ft 487 kts 120°
2026-05-09 01:14 49.80274 8.92409 35560 ft 487 kts 120°
2026-05-09 01:15 49.78579 8.96948 35335 ft 487 kts 120°
2026-05-09 01:15 49.76878 9.01496 35089 ft 486 kts 120°
2026-05-09 01:15 49.75181 9.06030 34856 ft 486 kts 120°
2026-05-09 01:15 49.73490 9.10551 34629 ft 486 kts 120°
2026-05-09 01:16 49.71790 9.15078 34392 ft 485 kts 120°
2026-05-09 01:16 49.70093 9.19588 34160 ft 485 kts 120°
2026-05-09 01:16 49.68391 9.24102 33889 ft 485 kts 120°
2026-05-09 01:17 49.64990 9.33100 33346 ft 484 kts 120°
2026-05-09 01:17 49.63233 9.37538 33070 ft 484 kts 123°
2026-05-09 01:17 49.61315 9.41826 32813 ft 484 kts 126°
2026-05-09 01:17 49.59249 9.45922 32551 ft 483 kts 129°
2026-05-09 01:18 49.57056 9.49845 32272 ft 482 kts 132°
2026-05-09 01:18 49.54841 9.53728 32024 ft 483 kts 132°
2026-05-09 01:18 49.52617 9.57612 31785 ft 482 kts 132°
2026-05-09 01:18 49.50398 9.61484 31523 ft 482 kts 132°
2026-05-09 01:19 49.48181 9.65355 31243 ft 482 kts 132°
2026-05-09 01:19 49.45959 9.69232 30818 ft 481 kts 131°
2026-05-09 01:19 49.43745 9.73093 30243 ft 481 kts 131°
2026-05-09 01:19 49.41531 9.76949 29487 ft 481 kts 131°
2026-05-09 01:20 49.39317 9.80802 28739 ft 481 kts 132°
2026-05-09 01:20 49.37100 9.84648 28029 ft 479 kts 132°
2026-05-09 01:20 49.34904 9.88450 27586 ft 472 kts 133°
2026-05-09 01:20 49.32730 9.92197 27067 ft 468 kts 133°
2026-05-09 01:21 49.30574 9.95907 26592 ft 463 kts 133°
2026-05-09 01:21 49.28435 9.99582 26124 ft 459 kts 133°
2026-05-09 01:21 49.26307 10.03236 25658 ft 455 kts 133°
2026-05-09 01:21 49.24207 10.06838 25197 ft 451 kts 133°
2026-05-09 01:22 49.22125 10.10403 24736 ft 447 kts 133°
2026-05-09 01:22 49.20056 10.13943 24275 ft 444 kts 133°
2026-05-09 01:22 49.18035 10.17398 23848 ft 440 kts 133°
2026-05-09 01:22 49.16000 10.20877 23331 ft 436 kts 133°
2026-05-09 01:23 49.13983 10.24318 22825 ft 431 kts 134°
2026-05-09 01:23 49.11947 10.27652 22388 ft 426 kts 135°
2026-05-09 01:23 49.09911 10.30911 21954 ft 421 kts 135°
2026-05-09 01:23 49.07892 10.34133 21502 ft 417 kts 135°
2026-05-09 01:24 49.05898 10.37323 21045 ft 414 kts 135°
2026-05-09 01:24 49.03920 10.40494 20597 ft 411 kts 135°
2026-05-09 01:24 49.01915 10.43706 20157 ft 416 kts 136°
2026-05-09 01:24 48.99847 10.47007 19727 ft 436 kts 135°
2026-05-09 01:25 48.97766 10.50329 19276 ft 431 kts 136°
2026-05-09 01:25 48.95702 10.53619 18766 ft 427 kts 136°
2026-05-09 01:25 48.93660 10.56870 18239 ft 423 kts 136°
2026-05-09 01:25 48.91633 10.60090 17717 ft 418 kts 136°
2026-05-09 01:26 48.89631 10.63270 17231 ft 413 kts 136°
2026-05-09 01:26 48.87660 10.66401 16757 ft 408 kts 136°
2026-05-09 01:26 48.85706 10.69500 16297 ft 404 kts 136°
2026-05-09 01:26 48.83770 10.72566 15824 ft 400 kts 136°
2026-05-09 01:27 48.81852 10.75598 15352 ft 396 kts 136°
2026-05-09 01:27 48.79950 10.78598 14902 ft 393 kts 136°
2026-05-09 01:27 48.78056 10.81573 14457 ft 390 kts 136°
2026-05-09 01:27 48.76176 10.84521 13979 ft 388 kts 136°
2026-05-09 01:28 48.74303 10.87456 13474 ft 385 kts 136°
2026-05-09 01:28 48.72472 10.90322 13003 ft 382 kts 136°
2026-05-09 01:28 48.70630 10.93202 12546 ft 379 kts 136°
2026-05-09 01:28 48.68792 10.96073 12098 ft 375 kts 136°
2026-05-09 01:29 48.66983 10.98892 11669 ft 372 kts 136°
2026-05-09 01:29 48.65190 11.01681 11229 ft 368 kts 136°
2026-05-09 01:29 48.63418 11.04436 10960 ft 359 kts 135°
2026-05-09 01:29 48.61704 11.07100 10820 ft 346 kts 136°
2026-05-09 01:30 48.60051 11.09666 10687 ft 333 kts 136°
2026-05-09 01:30 48.58423 11.12070 10555 ft 321 kts 140°
2026-05-09 01:30 48.56722 11.14163 10429 ft 309 kts 145°
2026-05-09 01:30 48.54993 11.15975 10324 ft 297 kts 148°
2026-05-09 01:31 48.53321 11.17704 10209 ft 287 kts 143°
2026-05-09 01:31 48.52093 11.20011 10060 ft 282 kts 113°
2026-05-09 01:31 48.51747 11.22970 10062 ft 295 kts 85°
2026-05-09 01:31 48.52127 11.26028 10096 ft 298 kts 77°
2026-05-09 01:32 48.52601 11.29081 10098 ft 298 kts 76°
2026-05-09 01:32 48.53073 11.32146 9841 ft 300 kts 76°
2026-05-09 01:32 48.53533 11.35231 9454 ft 298 kts 77°
2026-05-09 01:32 48.53978 11.38278 9127 ft 296 kts 77°
2026-05-09 01:33 48.54411 11.41300 8813 ft 293 kts 77°
2026-05-09 01:33 48.54836 11.44293 8499 ft 289 kts 77°
2026-05-09 01:33 48.55255 11.47255 8197 ft 287 kts 77°
2026-05-09 01:33 48.55669 11.50185 7895 ft 284 kts 78°
2026-05-09 01:34 48.55740 11.53142 7532 ft 283 kts 105°
2026-05-09 01:34 48.54814 11.55692 7227 ft 278 kts 136°
2026-05-09 01:34 48.53195 11.57194 6921 ft 273 kts 165°
2026-05-09 01:34 48.51360 11.57348 6618 ft 268 kts 192°
2026-05-09 01:35 48.49547 11.56564 6354 ft 264 kts 198°
2026-05-09 01:35 48.47798 11.55727 6046 ft 263 kts 197°
2026-05-09 01:35 48.46060 11.54916 5759 ft 260 kts 197°
2026-05-09 01:35 48.44337 11.54132 5460 ft 257 kts 196°
2026-05-09 01:36 48.42643 11.53375 5201 ft 248 kts 196°
2026-05-09 01:36 48.41051 11.52672 5184 ft 229 kts 195°
2026-05-09 01:36 48.39591 11.52029 5203 ft 208 kts 195°
2026-05-09 01:36 48.38273 11.51449 5210 ft 186 kts 195°
2026-05-09 01:37 48.37114 11.50940 5159 ft 167 kts 195°
2026-05-09 01:37 48.36004 11.50660 5084 ft 161 kts 170°
2026-05-09 01:37 48.35003 11.51384 5093 ft 160 kts 129°
2026-05-09 01:37 48.34578 11.52883 4921 ft 159 kts 99°
2026-05-09 01:38 48.34542 11.54527 4592 ft 157 kts 86°
2026-05-09 01:38 48.34665 11.56158 4220 ft 156 kts 83°
2026-05-09 01:38 48.34818 11.57766 3998 ft 155 kts 83°
2026-05-09 01:38 48.34959 11.59372 3793 ft 155 kts 84°
2026-05-09 01:39 48.35087 11.60983 3591 ft 155 kts 84°
2026-05-09 01:39 48.35209 11.62593 3392 ft 154 kts 85°
2026-05-09 01:39 48.35328 11.64194 3181 ft 154 kts 85°
2026-05-09 01:39 48.35447 11.65796 2966 ft 153 kts 84°
2026-05-09 01:40 48.35567 11.67390 2777 ft 153 kts 84°
2026-05-09 01:40 48.35686 11.68979 2559 ft 152 kts 84°
2026-05-09 01:40 48.35805 11.70573 2320 ft 152 kts 84°
2026-05-09 01:40 48.35920 11.72149 2064 ft 151 kts 83°
2026-05-09 01:41 48.36037 11.73711 1850 ft 150 kts 83°
2026-05-09 01:41 48.36164 11.75261 1691 ft 148 kts 82°
2026-05-09 01:41 48.36283 11.76796 1516 ft 147 kts 83°
2026-05-09 01:41 48.36384 11.78168 1466 ft 105 kts 83°
2026-05-09 01:42 48.36448 11.78993 1469 ft 52 kts 83°
2026-05-09 01:42 48.36454 11.79218 1474 ft 7 kts 102°
2026-05-09 01:42 48.36451 11.79233 1467 ft 0 kts 106°
2026-05-09 01:42 48.36448 11.79248 1469 ft 3 kts 107°
2026-05-09 01:43 48.36439 11.79287 1472 ft 5 kts 113°
2026-05-09 01:43 48.36420 11.79354 1467 ft 9 kts 112°
2026-05-09 01:43 48.36390 11.79467 1465 ft 14 kts 112°
2026-05-09 01:43 48.36346 11.79624 1464 ft 18 kts 113°
2026-05-09 01:44 48.36316 11.79725 1462 ft 4 kts 116°
2026-05-09 01:44 48.36307 11.79752 1466 ft 0 kts 117°
2026-05-09 01:44 48.36306 11.79753 1466 ft 0 kts 117°
2026-05-09 01:44 48.36306 11.79755 1467 ft 1 kts 117°
2026-05-09 01:45 48.36304 11.79760 1461 ft 0 kts 123°
2026-05-09 01:45 48.36302 11.79763 1462 ft 1 kts 125°
2026-05-09 01:45 48.36299 11.79770 1462 ft 0 kts 125°
2026-05-09 01:45 48.36290 11.79788 1467 ft 6 kts 133°
2026-05-09 01:46 48.36271 11.79812 1466 ft 2 kts 144°
2026-05-09 01:46 48.36248 11.79828 1465 ft 6 kts 160°
2026-05-09 01:46 48.36185 11.79845 1467 ft 12 kts 174°
2026-05-09 01:46 48.36122 11.79768 1466 ft 13 kts 252°
2026-05-09 01:47 48.36119 11.79674 1473 ft 10 kts 264°
2026-05-09 01:47 48.36108 11.79558 1473 ft 13 kts 252°
2026-05-09 01:47 48.36041 11.79489 1468 ft 14 kts 176°
2026-05-09 01:47 48.35928 11.79510 1469 ft 18 kts 173°
2026-05-09 01:48 48.35789 11.79534 1464 ft 21 kts 173°
2026-05-09 01:48 48.35670 11.79554 1471 ft 0 kts 174°
2026-05-09 01:48 48.35661 11.79556 1474 ft 3 kts 174°
2026-05-09 01:48 48.35631 11.79563 1464 ft 6 kts 165°
2026-05-09 01:49 48.35612 11.79602 1472 ft 5 kts 98°
2026-05-09 01:49 48.35612 11.79611 1473 ft 2 kts 92°
2026-05-09 01:49 48.35614 11.79646 1473 ft 5 kts 82°
2026-05-09 01:49 48.35615 11.79661 1470 ft 1 kts 83°
2026-05-09 01:50 48.35615 11.79668 1473 ft 0 kts 84°
2026-05-09 01:50 48.35616 11.79679 1470 ft 0 kts 84°
2026-05-09 01:50 48.35617 11.79690 1467 ft 2 kts 84°
2026-05-09 01:50 48.35617 11.79694 1468 ft 0 kts 84°